Year,Month,Day,Hour,Minute,Value (Times are PST for temperature in C)
2007,09,18,00,00,8.80
2007,09,18,00,01,8.80
2007,09,18,00,02,8.80
2007,09,18,00,03,8.70
2007,09,18,00,04,8.70
2007,09,18,00,05,8.70
2007,09,18,00,06,8.70
2007,09,18,00,07,8.70
2007,09,18,00,08,8.60
2007,09,18,00,09,8.60
2007,09,18,00,10,8.60
2007,09,18,00,11,8.60
2007,09,18,00,12,8.60
2007,09,18,00,13,8.60
2007,09,18,00,14,8.50
2007,09,18,00,15,8.50
2007,09,18,00,16,8.50
2007,09,18,00,17,8.50
2007,09,18,00,18,8.50
2007,09,18,00,19,8.50
2007,09,18,00,20,8.50
2007,09,18,00,21,8.40
2007,09,18,00,22,8.40
2007,09,18,00,23,8.40
2007,09,18,00,24,8.40
2007,09,18,00,25,8.40
2007,09,18,00,26,8.40
2007,09,18,00,27,8.40
2007,09,18,00,28,8.30
2007,09,18,00,29,8.30
2007,09,18,00,30,8.30
2007,09,18,00,31,8.30
2007,09,18,00,32,8.30
2007,09,18,00,33,8.30
2007,09,18,00,34,8.30
2007,09,18,00,35,8.30
2007,09,18,00,36,8.30
2007,09,18,00,37,8.30
2007,09,18,00,38,8.30
2007,09,18,00,39,8.30
2007,09,18,00,40,8.30
2007,09,18,00,41,8.20
2007,09,18,00,42,8.20
2007,09,18,00,43,8.20
2007,09,18,00,44,8.20
2007,09,18,00,45,8.20
2007,09,18,00,46,8.20
2007,09,18,00,47,8.20
2007,09,18,00,48,8.20
2007,09,18,00,49,8.20
2007,09,18,00,50,8.20
2007,09,18,00,51,8.20
2007,09,18,00,52,8.20
2007,09,18,00,53,8.10
2007,09,18,00,54,8.10
2007,09,18,00,55,8.10
2007,09,18,00,56,8.10
2007,09,18,00,57,8.10
2007,09,18,00,58,8.10
2007,09,18,00,59,8.10
2007,09,18,01,00,8.00
2007,09,18,01,01,8.00
2007,09,18,01,02,8.00
2007,09,18,01,03,8.00
2007,09,18,01,04,8.00
2007,09,18,01,05,7.90
2007,09,18,01,06,7.90
2007,09,18,01,07,7.90
2007,09,18,01,08,7.90
2007,09,18,01,09,7.90
2007,09,18,01,10,7.90
2007,09,18,01,11,7.90
2007,09,18,01,12,7.90
2007,09,18,01,13,7.80
2007,09,18,01,14,7.80
2007,09,18,01,15,7.80
2007,09,18,01,16,7.80
2007,09,18,01,17,7.80
2007,09,18,01,18,7.80
2007,09,18,01,19,7.80
2007,09,18,01,20,7.80
2007,09,18,01,21,7.70
2007,09,18,01,22,7.70
2007,09,18,01,23,7.70
2007,09,18,01,24,7.70
2007,09,18,01,25,7.70
2007,09,18,01,26,7.70
2007,09,18,01,27,7.70
2007,09,18,01,28,7.70
2007,09,18,01,29,7.80
2007,09,18,01,30,7.80
2007,09,18,01,31,7.80
2007,09,18,01,32,7.80
2007,09,18,01,33,7.80
2007,09,18,01,34,7.80
2007,09,18,01,35,7.80
2007,09,18,01,36,7.80
2007,09,18,01,37,7.80
2007,09,18,01,38,7.80
2007,09,18,01,39,7.80
2007,09,18,01,40,7.90
2007,09,18,01,41,7.90
2007,09,18,01,42,7.90
2007,09,18,01,43,8.00
2007,09,18,01,44,8.10
2007,09,18,01,45,8.20
2007,09,18,01,46,8.40
2007,09,18,01,47,8.60
2007,09,18,01,48,8.80
2007,09,18,01,49,9.00
2007,09,18,01,50,9.10
2007,09,18,01,51,9.30
2007,09,18,01,52,9.50
2007,09,18,01,53,9.60
2007,09,18,01,54,9.70
2007,09,18,01,55,9.80
2007,09,18,01,56,9.90
2007,09,18,01,57,9.90
2007,09,18,01,58,9.90
2007,09,18,01,59,10.00
2007,09,18,02,00,10.00
2007,09,18,02,01,10.00
2007,09,18,02,02,10.00
2007,09,18,02,03,10.00
2007,09,18,02,04,10.10
2007,09,18,02,05,10.10
2007,09,18,02,06,10.20
2007,09,18,02,07,10.20
2007,09,18,02,08,10.30
2007,09,18,02,09,10.30
2007,09,18,02,10,10.40
2007,09,18,02,11,10.40
2007,09,18,02,12,10.40
2007,09,18,02,13,10.40
2007,09,18,02,14,10.40
2007,09,18,02,15,10.40
2007,09,18,02,16,10.50
2007,09,18,02,17,10.50
2007,09,18,02,18,10.60
2007,09,18,02,19,10.60
2007,09,18,02,20,10.60
2007,09,18,02,21,10.60
2007,09,18,02,22,10.60
2007,09,18,02,23,10.60
2007,09,18,02,24,10.60
2007,09,18,02,25,10.70
2007,09,18,02,26,10.70
2007,09,18,02,27,10.70
2007,09,18,02,28,10.70
2007,09,18,02,29,10.70
2007,09,18,02,30,10.70
2007,09,18,02,31,10.70
2007,09,18,02,32,10.70
2007,09,18,02,33,10.70
2007,09,18,02,34,10.70
2007,09,18,02,35,10.80
2007,09,18,02,36,10.80
2007,09,18,02,37,10.80
2007,09,18,02,38,10.80
2007,09,18,02,39,10.80
2007,09,18,02,40,10.80
2007,09,18,02,41,10.80
2007,09,18,02,42,10.80
2007,09,18,02,43,10.70
2007,09,18,02,44,10.70
2007,09,18,02,45,10.60
2007,09,18,02,46,10.60
2007,09,18,02,47,10.60
2007,09,18,02,48,10.50
2007,09,18,02,49,10.50
2007,09,18,02,50,10.50
2007,09,18,02,51,10.50
2007,09,18,02,52,10.60
2007,09,18,02,53,10.60
2007,09,18,02,54,10.60
2007,09,18,02,55,10.60
2007,09,18,02,56,10.60
2007,09,18,02,57,10.60
2007,09,18,02,58,10.60
2007,09,18,02,59,10.60
2007,09,18,03,00,10.60
2007,09,18,03,01,10.50
2007,09,18,03,02,10.50
2007,09,18,03,03,10.50
2007,09,18,03,04,10.50
2007,09,18,03,05,10.50
2007,09,18,03,06,10.40
2007,09,18,03,07,10.40
2007,09,18,03,08,10.40
2007,09,18,03,09,10.40
2007,09,18,03,10,10.40
2007,09,18,03,11,10.40
2007,09,18,03,12,10.40
2007,09,18,03,13,10.40
2007,09,18,03,14,10.40
2007,09,18,03,15,10.40
2007,09,18,03,16,10.40
2007,09,18,03,17,10.40
2007,09,18,03,18,10.40
2007,09,18,03,19,10.40
2007,09,18,03,20,10.40
2007,09,18,03,21,10.40
2007,09,18,03,22,10.40
2007,09,18,03,23,10.40
2007,09,18,03,24,10.40
2007,09,18,03,25,10.40
2007,09,18,03,26,10.40
2007,09,18,03,27,10.40
2007,09,18,03,28,10.40
2007,09,18,03,29,10.40
2007,09,18,03,30,10.40
2007,09,18,03,31,10.40
2007,09,18,03,32,10.40
2007,09,18,03,33,10.40
2007,09,18,03,34,10.40
2007,09,18,03,35,10.40
2007,09,18,03,36,10.40
2007,09,18,03,37,10.40
2007,09,18,03,38,10.50
2007,09,18,03,39,10.50
2007,09,18,03,40,10.50
2007,09,18,03,41,10.40
2007,09,18,03,42,10.50
2007,09,18,03,43,10.50
2007,09,18,03,44,10.50
2007,09,18,03,45,10.60
2007,09,18,03,46,10.60
2007,09,18,03,47,10.60
2007,09,18,03,48,10.60
2007,09,18,03,49,10.70
2007,09,18,03,50,10.70
2007,09,18,03,51,10.70
2007,09,18,03,52,10.70
2007,09,18,03,53,10.70
2007,09,18,03,54,10.60
2007,09,18,03,55,10.60
2007,09,18,03,56,10.60
2007,09,18,03,57,10.60
2007,09,18,03,58,10.50
2007,09,18,03,59,10.50
2007,09,18,04,00,10.40
2007,09,18,04,01,10.30
2007,09,18,04,02,10.20
2007,09,18,04,03,10.10
2007,09,18,04,04,10.10
2007,09,18,04,05,10.00
2007,09,18,04,06,9.90
2007,09,18,04,07,9.80
2007,09,18,04,08,9.70
2007,09,18,04,09,9.70
2007,09,18,04,10,9.60
2007,09,18,04,11,9.60
2007,09,18,04,12,9.60
2007,09,18,04,13,9.60
2007,09,18,04,14,9.50
2007,09,18,04,15,9.50
2007,09,18,04,16,9.50
2007,09,18,04,17,9.50
2007,09,18,04,18,9.50
2007,09,18,04,19,9.60
2007,09,18,04,20,9.60
2007,09,18,04,21,9.60
2007,09,18,04,22,9.60
2007,09,18,04,23,9.70
2007,09,18,04,24,9.70
2007,09,18,04,25,9.70
2007,09,18,04,26,9.70
2007,09,18,04,27,9.80
2007,09,18,04,28,9.80
2007,09,18,04,29,9.80
2007,09,18,04,30,9.80
2007,09,18,04,31,9.80
2007,09,18,04,32,9.90
2007,09,18,04,33,9.90
2007,09,18,04,34,9.90
2007,09,18,04,35,9.90
2007,09,18,04,36,10.00
2007,09,18,04,37,10.00
2007,09,18,04,38,10.00
2007,09,18,04,39,10.10
2007,09,18,04,40,10.10
2007,09,18,04,41,10.10
2007,09,18,04,42,10.10
2007,09,18,04,43,10.20
2007,09,18,04,44,10.20
2007,09,18,04,45,10.20
2007,09,18,04,46,10.20
2007,09,18,04,47,10.30
2007,09,18,04,48,10.30
2007,09,18,04,49,10.30
2007,09,18,04,50,10.30
2007,09,18,04,51,10.30
2007,09,18,04,52,10.30
2007,09,18,04,53,10.30
2007,09,18,04,54,10.30
2007,09,18,04,55,10.30
2007,09,18,04,56,10.30
2007,09,18,04,57,10.30
2007,09,18,04,58,10.30
2007,09,18,04,59,10.30
2007,09,18,05,00,10.30
2007,09,18,05,01,10.30
2007,09,18,05,02,10.20
2007,09,18,05,03,10.20
2007,09,18,05,04,10.20
2007,09,18,05,05,10.10
2007,09,18,05,06,10.10
2007,09,18,05,07,10.10
2007,09,18,05,08,10.00
2007,09,18,05,09,10.00
2007,09,18,05,10,10.00
2007,09,18,05,11,10.10
2007,09,18,05,12,10.10
2007,09,18,05,13,10.10
2007,09,18,05,14,10.10
2007,09,18,05,15,10.10
2007,09,18,05,16,10.10
2007,09,18,05,17,10.10
2007,09,18,05,18,10.10
2007,09,18,05,19,10.20
2007,09,18,05,20,10.20
2007,09,18,05,21,10.20
2007,09,18,05,22,10.30
2007,09,18,05,23,10.30
2007,09,18,05,24,10.40
2007,09,18,05,25,10.40
2007,09,18,05,26,10.50
2007,09,18,05,27,10.60
2007,09,18,05,28,10.60
2007,09,18,05,29,10.70
2007,09,18,05,30,10.70
2007,09,18,05,31,10.80
2007,09,18,05,32,10.80
2007,09,18,05,33,10.80
2007,09,18,05,34,10.90
2007,09,18,05,35,10.90
2007,09,18,05,36,10.90
2007,09,18,05,37,11.00
2007,09,18,05,38,11.00
2007,09,18,05,39,11.00
2007,09,18,05,40,11.10
2007,09,18,05,41,11.10
2007,09,18,05,42,11.10
2007,09,18,05,43,11.20
2007,09,18,05,44,11.20
2007,09,18,05,45,11.20
2007,09,18,05,46,11.20
2007,09,18,05,47,11.20
2007,09,18,05,48,11.20
2007,09,18,05,49,11.20
2007,09,18,05,50,11.20
2007,09,18,05,51,11.20
2007,09,18,05,52,11.20
2007,09,18,05,53,11.20
2007,09,18,05,54,11.30
2007,09,18,05,55,11.30
2007,09,18,05,56,11.30
2007,09,18,05,57,11.30
2007,09,18,05,58,11.30
2007,09,18,05,59,11.20
2007,09,18,06,00,11.20
2007,09,18,06,01,11.20
2007,09,18,06,02,11.20
2007,09,18,06,03,11.20
2007,09,18,06,04,11.20
2007,09,18,06,05,11.20
2007,09,18,06,06,11.20
2007,09,18,06,07,11.20
2007,09,18,06,08,11.20
2007,09,18,06,09,11.20
2007,09,18,06,10,11.20
2007,09,18,06,11,11.20
2007,09,18,06,12,11.20
2007,09,18,06,13,11.20
2007,09,18,06,14,11.20
2007,09,18,06,15,11.20
2007,09,18,06,16,11.10
2007,09,18,06,17,11.10
2007,09,18,06,18,11.10
2007,09,18,06,19,11.10
2007,09,18,06,20,11.10
2007,09,18,06,21,11.10
2007,09,18,06,22,11.10
2007,09,18,06,23,11.20
2007,09,18,06,24,11.20
2007,09,18,06,25,11.20
2007,09,18,06,26,11.20
2007,09,18,06,27,11.20
2007,09,18,06,28,11.20
2007,09,18,06,29,11.20
2007,09,18,06,30,11.20
2007,09,18,06,31,11.20
2007,09,18,06,32,11.10
2007,09,18,06,33,11.10
2007,09,18,06,34,11.10
2007,09,18,06,35,11.00
2007,09,18,06,36,11.00
2007,09,18,06,37,10.90
2007,09,18,06,38,10.80
2007,09,18,06,39,10.80
2007,09,18,06,40,10.70
2007,09,18,06,41,10.70
2007,09,18,06,42,10.60
2007,09,18,06,43,10.50
2007,09,18,06,44,10.40
2007,09,18,06,45,10.30
2007,09,18,06,46,10.20
2007,09,18,06,47,10.20
2007,09,18,06,48,10.20
2007,09,18,06,49,10.20
2007,09,18,06,50,10.10
2007,09,18,06,51,10.10
2007,09,18,06,52,10.10
2007,09,18,06,53,10.10
2007,09,18,06,54,10.10
2007,09,18,06,55,10.10
2007,09,18,06,56,10.10
2007,09,18,06,57,10.10
2007,09,18,06,58,10.10
2007,09,18,06,59,10.10
2007,09,18,07,00,10.10
2007,09,18,07,01,10.10
2007,09,18,07,02,10.10
2007,09,18,07,03,10.10
2007,09,18,07,04,10.10
2007,09,18,07,05,10.10
2007,09,18,07,06,10.10
2007,09,18,07,07,10.10
2007,09,18,07,08,10.00
2007,09,18,07,09,10.00
2007,09,18,07,10,10.00
2007,09,18,07,11,9.90
2007,09,18,07,12,9.90
2007,09,18,07,13,9.90
2007,09,18,07,14,9.90
2007,09,18,07,15,9.80
2007,09,18,07,16,9.80
2007,09,18,07,17,9.70
2007,09,18,07,18,9.60
2007,09,18,07,19,9.60
2007,09,18,07,20,9.50
2007,09,18,07,21,9.40
2007,09,18,07,22,9.30
2007,09,18,07,23,9.30
2007,09,18,07,24,9.30
2007,09,18,07,25,9.20
2007,09,18,07,26,9.20
2007,09,18,07,27,9.20
2007,09,18,07,28,9.10
2007,09,18,07,29,9.10
2007,09,18,07,30,9.10
2007,09,18,07,31,9.10
2007,09,18,07,32,9.10
2007,09,18,07,33,9.10
2007,09,18,07,34,9.10
2007,09,18,07,35,9.20
2007,09,18,07,36,9.20
2007,09,18,07,37,9.20
2007,09,18,07,38,9.20
2007,09,18,07,39,9.20
2007,09,18,07,40,9.20
2007,09,18,07,41,9.20
2007,09,18,07,42,9.20
2007,09,18,07,43,9.20
2007,09,18,07,44,9.20
2007,09,18,07,45,9.10
2007,09,18,07,46,9.10
2007,09,18,07,47,9.10
2007,09,18,07,48,9.20
2007,09,18,07,49,9.20
2007,09,18,07,50,9.20
2007,09,18,07,51,9.20
2007,09,18,07,52,9.30
2007,09,18,07,53,9.40
2007,09,18,07,54,9.40
2007,09,18,07,55,9.50
2007,09,18,07,56,9.60
2007,09,18,07,57,9.70
2007,09,18,07,58,9.80
2007,09,18,07,59,9.90
2007,09,18,08,00,10.00
2007,09,18,08,01,10.10
2007,09,18,08,02,10.20
2007,09,18,08,03,10.20
2007,09,18,08,04,10.30
2007,09,18,08,05,10.30
2007,09,18,08,06,10.40
2007,09,18,08,07,10.40
2007,09,18,08,08,10.50
2007,09,18,08,09,10.60
2007,09,18,08,10,10.60
2007,09,18,08,11,10.60
2007,09,18,08,12,10.60
2007,09,18,08,13,10.70
2007,09,18,08,14,10.70
2007,09,18,08,15,10.70
2007,09,18,08,16,10.80
2007,09,18,08,17,10.80
2007,09,18,08,18,10.80
2007,09,18,08,19,10.80
2007,09,18,08,20,10.90
2007,09,18,08,21,10.90
2007,09,18,08,22,11.00
2007,09,18,08,23,11.00
2007,09,18,08,24,11.10
2007,09,18,08,25,11.10
2007,09,18,08,26,11.20
2007,09,18,08,27,11.20
2007,09,18,08,28,11.20
2007,09,18,08,29,11.30
2007,09,18,08,30,11.30
2007,09,18,08,31,11.30
2007,09,18,08,32,11.40
2007,09,18,08,33,11.40
2007,09,18,08,34,11.50
2007,09,18,08,35,11.50
2007,09,18,08,36,11.60
2007,09,18,08,37,11.60
2007,09,18,08,38,11.60
2007,09,18,08,39,11.70
2007,09,18,08,40,11.70
2007,09,18,08,41,11.70
2007,09,18,08,42,11.80
2007,09,18,08,43,11.80
2007,09,18,08,44,11.80
2007,09,18,08,45,11.80
2007,09,18,08,46,11.80
2007,09,18,08,47,11.90
2007,09,18,08,48,11.90
2007,09,18,08,49,11.90
2007,09,18,08,50,11.90
2007,09,18,08,51,11.90
2007,09,18,08,52,12.00
2007,09,18,08,53,12.00
2007,09,18,08,54,12.00
2007,09,18,08,55,12.10
2007,09,18,08,56,12.10
2007,09,18,08,57,12.10
2007,09,18,08,58,12.10
2007,09,18,08,59,12.10
2007,09,18,09,00,12.20
2007,09,18,09,01,12.20
2007,09,18,09,02,12.20
2007,09,18,09,03,12.30
2007,09,18,09,04,12.30
2007,09,18,09,05,12.30
2007,09,18,09,06,12.30
2007,09,18,09,07,12.40
2007,09,18,09,08,12.40
2007,09,18,09,09,12.40
2007,09,18,09,10,12.40
2007,09,18,09,11,12.40
2007,09,18,09,12,12.40
2007,09,18,09,13,12.40
2007,09,18,09,14,12.40
2007,09,18,09,15,12.50
2007,09,18,09,16,12.50
2007,09,18,09,17,12.50
2007,09,18,09,18,12.50
2007,09,18,09,19,12.50
2007,09,18,09,20,12.60
2007,09,18,09,21,12.60
2007,09,18,09,22,12.60
2007,09,18,09,23,12.60
2007,09,18,09,24,12.70
2007,09,18,09,25,12.70
2007,09,18,09,26,12.70
2007,09,18,09,27,12.80
2007,09,18,09,28,12.80
2007,09,18,09,29,12.80
2007,09,18,09,30,12.90
2007,09,18,09,31,12.90
2007,09,18,09,32,12.90
2007,09,18,09,33,13.00
2007,09,18,09,34,13.10
2007,09,18,09,35,13.10
2007,09,18,09,36,13.10
2007,09,18,09,37,13.20
2007,09,18,09,38,13.20
2007,09,18,09,39,13.30
2007,09,18,09,40,13.30
2007,09,18,09,41,13.30
2007,09,18,09,42,13.40
2007,09,18,09,43,13.40
2007,09,18,09,44,13.40
2007,09,18,09,45,13.40
2007,09,18,09,46,13.40
2007,09,18,09,47,13.40
2007,09,18,09,48,13.40
2007,09,18,09,49,13.30
2007,09,18,09,50,13.30
2007,09,18,09,51,13.30
2007,09,18,09,52,13.30
2007,09,18,09,53,13.30
2007,09,18,09,54,13.30
2007,09,18,09,55,13.20
2007,09,18,09,56,13.20
2007,09,18,09,57,13.20
2007,09,18,09,58,13.20
2007,09,18,09,59,13.20
2007,09,18,10,00,13.20
2007,09,18,10,01,13.30
2007,09,18,10,02,13.30
2007,09,18,10,03,13.40
2007,09,18,10,04,13.50
2007,09,18,10,05,13.60
2007,09,18,10,06,13.70
2007,09,18,10,07,13.80
2007,09,18,10,08,13.80
2007,09,18,10,09,13.90
2007,09,18,10,10,13.90
2007,09,18,10,11,14.00
2007,09,18,10,12,14.00
2007,09,18,10,13,14.00
2007,09,18,10,14,14.00
2007,09,18,10,15,13.90
2007,09,18,10,16,14.00
2007,09,18,10,17,14.00
2007,09,18,10,18,14.00
2007,09,18,10,19,14.00
2007,09,18,10,20,14.00
2007,09,18,10,21,14.10
2007,09,18,10,22,14.10
2007,09,18,10,23,14.10
2007,09,18,10,24,14.00
2007,09,18,10,25,13.90
2007,09,18,10,26,13.90
2007,09,18,10,27,14.00
2007,09,18,10,28,14.00
2007,09,18,10,29,13.90
2007,09,18,10,30,13.90
2007,09,18,10,31,13.90
2007,09,18,10,32,13.90
2007,09,18,10,33,13.80
2007,09,18,10,34,13.80
2007,09,18,10,35,13.80
2007,09,18,10,36,13.80
2007,09,18,10,37,13.80
2007,09,18,10,38,13.80
2007,09,18,10,39,13.80
2007,09,18,10,40,13.80
2007,09,18,10,41,13.80
2007,09,18,10,42,13.80
2007,09,18,10,43,13.80
2007,09,18,10,44,13.80
2007,09,18,10,45,13.80
2007,09,18,10,46,13.80
2007,09,18,10,47,13.80
2007,09,18,10,48,13.80
2007,09,18,10,49,13.80
2007,09,18,10,50,13.80
2007,09,18,10,51,13.80
2007,09,18,10,52,13.90
2007,09,18,10,53,13.90
2007,09,18,10,54,13.90
2007,09,18,10,55,13.90
2007,09,18,10,56,13.90
2007,09,18,10,57,13.90
2007,09,18,10,58,13.90
2007,09,18,10,59,13.90
2007,09,18,11,00,13.90
2007,09,18,11,01,13.90
2007,09,18,11,02,13.90
2007,09,18,11,03,13.90
2007,09,18,11,04,14.00
2007,09,18,11,05,14.00
2007,09,18,11,06,14.00
2007,09,18,11,07,14.10
2007,09,18,11,08,14.10
2007,09,18,11,09,14.00
2007,09,18,11,10,14.00
2007,09,18,11,11,13.90
2007,09,18,11,12,13.90
2007,09,18,11,13,13.90
2007,09,18,11,14,13.90
2007,09,18,11,15,13.90
2007,09,18,11,16,13.90
2007,09,18,11,17,13.90
2007,09,18,11,18,13.90
2007,09,18,11,19,13.90
2007,09,18,11,20,13.80
2007,09,18,11,21,13.80
2007,09,18,11,22,13.80
2007,09,18,11,23,13.80
2007,09,18,11,24,13.80
2007,09,18,11,25,13.80
2007,09,18,11,26,13.70
2007,09,18,11,27,13.70
2007,09,18,11,28,13.70
2007,09,18,11,29,13.70
2007,09,18,11,30,13.70
2007,09,18,11,31,13.60
2007,09,18,11,32,13.60
2007,09,18,11,33,13.50
2007,09,18,11,34,13.40
2007,09,18,11,35,13.40
2007,09,18,11,36,13.30
2007,09,18,11,37,13.30
2007,09,18,11,38,13.30
2007,09,18,11,39,13.30
2007,09,18,11,40,13.20
2007,09,18,11,41,13.20
2007,09,18,11,42,13.20
2007,09,18,11,43,13.20
2007,09,18,11,44,13.20
2007,09,18,11,45,13.20
2007,09,18,11,46,13.20
2007,09,18,11,47,13.20
2007,09,18,11,48,13.20
2007,09,18,11,49,13.20
2007,09,18,11,50,13.20
2007,09,18,11,51,13.20
2007,09,18,11,52,13.20
2007,09,18,11,53,13.20
2007,09,18,11,54,13.20
2007,09,18,11,55,13.20
2007,09,18,11,56,13.20
2007,09,18,11,57,13.10
2007,09,18,11,58,13.10
2007,09,18,11,59,13.10
2007,09,18,12,00,13.10
2007,09,18,12,01,13.00
2007,09,18,12,02,13.00
2007,09,18,12,03,13.00
2007,09,18,12,04,13.00
2007,09,18,12,05,12.90
2007,09,18,12,06,12.90
2007,09,18,12,07,12.90
2007,09,18,12,08,12.90
2007,09,18,12,09,12.90
2007,09,18,12,10,12.90
2007,09,18,12,11,12.90
2007,09,18,12,12,12.90
2007,09,18,12,13,12.90
2007,09,18,12,14,12.90
2007,09,18,12,15,12.90
2007,09,18,12,16,12.90
2007,09,18,12,17,12.90
2007,09,18,12,18,12.90
2007,09,18,12,19,12.80
2007,09,18,12,20,12.80
2007,09,18,12,21,12.80
2007,09,18,12,22,12.80
2007,09,18,12,23,12.80
2007,09,18,12,24,12.80
2007,09,18,12,25,12.80
2007,09,18,12,26,12.80
2007,09,18,12,27,12.80
2007,09,18,12,28,12.80
2007,09,18,12,29,12.80
2007,09,18,12,30,12.80
2007,09,18,12,31,12.80
2007,09,18,12,32,12.80
2007,09,18,12,33,12.70
2007,09,18,12,34,12.70
2007,09,18,12,35,12.70
2007,09,18,12,36,12.70
2007,09,18,12,37,12.70
2007,09,18,12,38,12.70
2007,09,18,12,39,12.60
2007,09,18,12,40,12.60
2007,09,18,12,41,12.60
2007,09,18,12,42,12.60
2007,09,18,12,43,12.60
2007,09,18,12,44,12.60
2007,09,18,12,45,12.60
2007,09,18,12,46,12.60
2007,09,18,12,47,12.60
2007,09,18,12,48,12.60
2007,09,18,12,49,12.60
2007,09,18,12,50,12.60
2007,09,18,12,51,12.60
2007,09,18,12,52,12.60
2007,09,18,12,53,12.60
2007,09,18,12,54,12.70
2007,09,18,12,55,12.70
2007,09,18,12,56,12.70
2007,09,18,12,57,12.70
2007,09,18,12,58,12.70
2007,09,18,12,59,12.70
2007,09,18,13,00,12.70
2007,09,18,13,01,12.70
2007,09,18,13,02,12.70
2007,09,18,13,03,12.70
2007,09,18,13,04,12.70
2007,09,18,13,05,12.80
2007,09,18,13,06,12.80
2007,09,18,13,07,12.80
2007,09,18,13,08,12.80
2007,09,18,13,09,12.80
2007,09,18,13,10,12.80
2007,09,18,13,11,12.80
2007,09,18,13,12,12.80
2007,09,18,13,13,12.80
2007,09,18,13,14,12.80
2007,09,18,13,15,12.80
2007,09,18,13,16,12.80
2007,09,18,13,17,12.80
2007,09,18,13,18,12.80
2007,09,18,13,19,12.80
2007,09,18,13,20,12.80
2007,09,18,13,21,12.80
2007,09,18,13,22,12.80
2007,09,18,13,23,12.90
2007,09,18,13,24,12.90
2007,09,18,13,25,12.90
2007,09,18,13,26,12.90
2007,09,18,13,27,13.00
2007,09,18,13,28,13.00
2007,09,18,13,29,13.10
2007,09,18,13,30,13.10
2007,09,18,13,31,13.10
2007,09,18,13,32,13.20
2007,09,18,13,33,13.20
2007,09,18,13,34,13.20
2007,09,18,13,35,13.30
2007,09,18,13,36,13.30
2007,09,18,13,37,13.30
2007,09,18,13,38,13.40
2007,09,18,13,39,13.40
2007,09,18,13,40,13.40
2007,09,18,13,41,13.40
2007,09,18,13,42,13.40
2007,09,18,13,43,13.50
2007,09,18,13,44,13.50
2007,09,18,13,45,13.60
2007,09,18,13,46,13.60
2007,09,18,13,47,13.60
2007,09,18,13,48,13.60
2007,09,18,13,49,13.60
2007,09,18,13,50,13.70
2007,09,18,13,51,13.70
2007,09,18,13,52,13.70
2007,09,18,13,53,13.70
2007,09,18,13,54,13.70
2007,09,18,13,55,13.80
2007,09,18,13,56,13.80
2007,09,18,13,57,13.90
2007,09,18,13,58,13.90
2007,09,18,13,59,13.90
2007,09,18,14,00,13.90
2007,09,18,14,01,13.90
2007,09,18,14,02,13.90
2007,09,18,14,03,13.90
2007,09,18,14,04,13.90
2007,09,18,14,05,13.90
2007,09,18,14,06,13.90
2007,09,18,14,07,13.90
2007,09,18,14,08,14.00
2007,09,18,14,09,14.00
2007,09,18,14,10,14.00
2007,09,18,14,11,14.10
2007,09,18,14,12,14.10
2007,09,18,14,13,14.10
2007,09,18,14,14,14.10
2007,09,18,14,15,14.10
2007,09,18,14,16,14.10
2007,09,18,14,17,14.10
2007,09,18,14,18,14.10
2007,09,18,14,19,14.10
2007,09,18,14,20,14.10
2007,09,18,14,21,14.10
2007,09,18,14,22,14.10
2007,09,18,14,23,14.10
2007,09,18,14,24,14.10
2007,09,18,14,25,14.10
2007,09,18,14,26,14.10
2007,09,18,14,27,14.10
2007,09,18,14,28,14.10
2007,09,18,14,29,14.20
2007,09,18,14,30,14.20
2007,09,18,14,31,14.10
2007,09,18,14,32,14.10
2007,09,18,14,33,14.10
2007,09,18,14,34,14.10
2007,09,18,14,35,14.10
2007,09,18,14,36,14.10
2007,09,18,14,37,14.10
2007,09,18,14,38,14.10
2007,09,18,14,39,14.10
2007,09,18,14,40,14.10
2007,09,18,14,41,14.10
2007,09,18,14,42,14.10
2007,09,18,14,43,14.20
2007,09,18,14,44,14.20
2007,09,18,14,45,14.20
2007,09,18,14,46,14.20
2007,09,18,14,47,14.20
2007,09,18,14,48,14.20
2007,09,18,14,49,14.20
2007,09,18,14,50,14.20
2007,09,18,14,51,14.20
2007,09,18,14,52,14.20
2007,09,18,14,53,14.20
2007,09,18,14,54,14.20
2007,09,18,14,55,14.20
2007,09,18,14,56,14.30
2007,09,18,14,57,14.30
2007,09,18,14,58,14.30
2007,09,18,14,59,14.30
2007,09,18,15,00,14.40
2007,09,18,15,01,14.40
2007,09,18,15,02,14.40
2007,09,18,15,03,14.40
2007,09,18,15,04,14.40
2007,09,18,15,05,14.40
2007,09,18,15,06,14.50
2007,09,18,15,07,14.50
2007,09,18,15,08,14.60
2007,09,18,15,09,14.60
2007,09,18,15,10,14.70
2007,09,18,15,11,14.80
2007,09,18,15,12,15.00
2007,09,18,15,13,15.00
2007,09,18,15,14,15.00
2007,09,18,15,15,15.10
2007,09,18,15,16,15.30
2007,09,18,15,17,15.30
2007,09,18,15,18,15.40
2007,09,18,15,19,15.40
2007,09,18,15,20,15.50
2007,09,18,15,21,15.60
2007,09,18,15,22,15.50
2007,09,18,15,23,15.50
2007,09,18,15,24,15.60
2007,09,18,15,25,15.60
2007,09,18,15,26,15.80
2007,09,18,15,27,15.80
2007,09,18,15,28,15.90
2007,09,18,15,29,16.00
2007,09,18,15,30,16.10
2007,09,18,15,31,16.10
2007,09,18,15,32,16.20
2007,09,18,15,33,16.20
2007,09,18,15,34,16.30
2007,09,18,15,35,16.30
2007,09,18,15,36,16.20
2007,09,18,15,37,16.20
2007,09,18,15,38,16.10
2007,09,18,15,39,16.10
2007,09,18,15,40,16.10
2007,09,18,15,41,16.10
2007,09,18,15,42,16.10
2007,09,18,15,43,16.10
2007,09,18,15,44,16.10
2007,09,18,15,45,16.00
2007,09,18,15,46,15.90
2007,09,18,15,47,15.90
2007,09,18,15,48,15.90
2007,09,18,15,49,15.90
2007,09,18,15,50,15.90
2007,09,18,15,51,15.90
2007,09,18,15,52,15.90
2007,09,18,15,53,15.90
2007,09,18,15,54,15.90
2007,09,18,15,55,15.90
2007,09,18,15,56,15.90
2007,09,18,15,57,15.90
2007,09,18,15,58,15.90
2007,09,18,15,59,16.00
2007,09,18,16,00,16.00
2007,09,18,16,01,16.00
2007,09,18,16,02,16.00
2007,09,18,16,03,16.00
2007,09,18,16,04,15.90
2007,09,18,16,05,15.90
2007,09,18,16,06,15.90
2007,09,18,16,07,15.80
2007,09,18,16,08,15.80
2007,09,18,16,09,15.70
2007,09,18,16,10,15.70
2007,09,18,16,11,15.60
2007,09,18,16,12,15.60
2007,09,18,16,13,15.50
2007,09,18,16,14,15.50
2007,09,18,16,15,15.40
2007,09,18,16,16,15.40
2007,09,18,16,17,15.40
2007,09,18,16,18,15.50
2007,09,18,16,19,15.40
2007,09,18,16,20,15.40
2007,09,18,16,21,15.40
2007,09,18,16,22,15.40
2007,09,18,16,23,15.30
2007,09,18,16,24,15.30
2007,09,18,16,25,15.30
2007,09,18,16,26,15.20
2007,09,18,16,27,15.20
2007,09,18,16,28,15.20
2007,09,18,16,29,15.10
2007,09,18,16,30,15.10
2007,09,18,16,31,15.10
2007,09,18,16,32,15.10
2007,09,18,16,33,15.10
2007,09,18,16,34,15.00
2007,09,18,16,35,15.00
2007,09,18,16,36,15.00
2007,09,18,16,37,15.00
2007,09,18,16,38,15.00
2007,09,18,16,39,15.00
2007,09,18,16,40,15.00
2007,09,18,16,41,15.00
2007,09,18,16,42,15.00
2007,09,18,16,43,15.00
2007,09,18,16,44,15.00
2007,09,18,16,45,15.00
2007,09,18,16,46,15.00
2007,09,18,16,47,15.00
2007,09,18,16,48,15.00
2007,09,18,16,49,15.00
2007,09,18,16,50,15.00
2007,09,18,16,51,14.90
2007,09,18,16,52,14.90
2007,09,18,16,53,14.90
2007,09,18,16,54,14.90
2007,09,18,16,55,14.90
2007,09,18,16,56,14.90
2007,09,18,16,57,15.00
2007,09,18,16,58,15.00
2007,09,18,16,59,15.00
2007,09,18,17,00,14.90
2007,09,18,17,01,14.90
2007,09,18,17,02,14.90
2007,09,18,17,03,14.90
2007,09,18,17,04,14.90
2007,09,18,17,05,14.90
2007,09,18,17,06,14.90
2007,09,18,17,07,14.90
2007,09,18,17,08,14.90
2007,09,18,17,09,14.90
2007,09,18,17,10,14.90
2007,09,18,17,11,14.90
2007,09,18,17,12,14.90
2007,09,18,17,13,14.90
2007,09,18,17,14,14.90
2007,09,18,17,15,14.90
2007,09,18,17,16,14.90
2007,09,18,17,17,14.90
2007,09,18,17,18,14.80
2007,09,18,17,19,14.80
2007,09,18,17,20,14.80
2007,09,18,17,21,14.70
2007,09,18,17,22,14.70
2007,09,18,17,23,14.70
2007,09,18,17,24,14.70
2007,09,18,17,25,14.70
2007,09,18,17,26,14.70
2007,09,18,17,27,14.70
2007,09,18,17,28,14.70